Regional Weather Roundup
Issued by NWS

Home | Current Version | Previous Version | Text Only | Print | Product List | Glossary Off
Versions: 1 2 3 4 5 6 7 8 9 10 11 12 13 14 15 16 17 18 19 20 21 22 23 24 25 26 27 28 29 30 31 32 33 34 35 36 37 38 39 40 41 42 43 44 45 46 47 48 49 50

000
ASUS43 KDTX 231310
RWRMI
MICHIGAN HOURLY REGIONAL WEATHER ROUNDUP
NATIONAL WEATHER SERVICE DETROIT/PONTIAC MI
800 AM EST SUN NOV 23 2014

NOTE: "FAIR" INDICATES FEW OR NO CLOUDS BELOW 12,000 FEET WITH NO
SIGNIFICANT WEATHER AND/OR OBSTRUCTION TO VISIBILITY.

MIZ047>049-052>055-059>063-066>070-074>076-081>083-231400-
SOUTHEAST LOWER MICHIGAN

CITY           SKY/WX    TMP DP  RH WIND       PRES   REMARKS
ADRIAN         CLOUDY    44  42  93 SW10      29.94R
ALMA           PTCLDY    46  44  94 S7        29.83F FOG
ANN ARBOR      CLOUDY    44  42  93 S8        29.92S FOG
BAD AXE        CLOUDY    45  44  97 S12       29.87S
DETROIT CITY   CLOUDY    47  43  86 S9        29.94F FOG
DETROIT        CLOUDY    45  43  93 S8        29.94S
FLINT          CLOUDY    49  44  83 S7        29.88F
GROSSE ILE     CLOUDY    39  37  93 S7        29.93F FOG
HILLSDALE      LGT RAIN  45  45 100 S8        29.89F
HOWELL         CLOUDY    45  43  91 S10       29.88F

CITY           SKY/WX    TMP DP  RH WIND       PRES   REMARKS
JACKSON        CLOUDY    46  42  86 S10       29.88F
LAMBERTVILLE   LGT RAIN  46  43  87 S7        29.95R
LANSING        CLOUDY    48  43  82 S13       29.86F
LAPEER         NOT AVBL
MASON          CLOUDY    47  44  88 S5        29.87F
MONROE         LGT RAIN  45  43  93 S8        29.92F
MT. CLEMENS    LGT RAIN  46  45  99 S8        29.90F
PONTIAC        CLOUDY    44  41  89 S8        29.90F
PORT HOPE        N/A     45  41  86 S5        29.84F
PORT HURON     RAIN      43  43 100 S10       29.93S
TRI CITIES     MOCLDY    49  45  86 S10       29.84F
YPSILANTI      CLOUDY    49  43  80 S9        29.93F
$$
MIZ043>046-050>051-056>058-064>065-071>073-077>080-231400-
SOUTHWEST LOWER MICHIGAN

CITY           SKY/WX    TMP DP  RH WIND       PRES   REMARKS
BATTLE CREEK   CLOUDY    48  43  82 S14       29.86S
BENTON HARBOR  CLOUDY    50  42  74 S15G21    29.80S
BIG RAPIDS     FOG       43  43 100 SE3       29.78F VSB 1
COLDWATER      CLOUDY    47  45  93 SE9       29.88R
HOLLAND        CLOUDY    49  44  83 S13       29.80S
GRAND RAPIDS   CLOUDY    47  43  86 S12       29.82S
KALAMAZOO      CLOUDY    47  43  86 S7        29.85S
MARSHALL       CLOUDY    45  44  95 S9        29.86S
MUSKEGON       CLOUDY    53  42  66 S14G29    29.78F
$$
MIZ016>042-231400-
NORTHERN LOWER MICHIGAN

CITY           SKY/WX    TMP DP  RH WIND       PRES   REMARKS
ALPENA         FOG       39  39 100 CALM      29.81S VSB 1/2
BEAVER ISLAND  CLOUDY    46  46  97 S6        29.70S FOG
BELLAIRE       CLOUDY    45  43  93 S9        29.73F FOG
CADILLAC       FOG       43  43 100 S12G18    29.74F VSB 1
CHARLEVOIX     CLOUDY    45  45 100 S7        29.74S FOG
FRANKFORT      CLOUDY    47  47  97 S8G17     29.72F FOG
GAYLORD        FOG       41  41 100 S13       29.74F VSB 1/4
GRAYLING       FOG       42  42 100 S6        29.77F VSB 1/2
HARBOR SPRINGS FOG       41  41  99 CALM      29.73S VSB 3/4
HOUGHTON LAKE  FOG       43  42  97 S9        29.79S VSB 3/4
MANISTEE       CLOUDY    46  45  93 S5        29.74F
OSCODA         CLOUDY    44  44 100 S5        29.83S FOG
PELLSTON       FOG       39  39 100 S3        29.73F VSB 1/4
TRAVERSE CITY  CLOUDY    48  44  86 S7        29.71F
$$
MIZ007>008-015-231400-
EASTERN UPPER MICHIGAN

CITY           SKY/WX    TMP DP  RH WIND       PRES   REMARKS
MACKINAC ISLAN CLOUDY    42  42 100 SE6       29.72F FOG
NEWBERRY       FOG       39  39 100 SE14      29.66F VSB<1/4
S. S. MARIE    FOG       36  36 100 E7        29.73F VSB 1/4
$$
MIZ004>006-011>014-085-231400-
CENTRAL UPPER MICHIGAN

CITY           SKY/WX    TMP DP  RH WIND       PRES   REMARKS
MANISTIQUE     DRZL/FOG  42  42 100 S14G21    29.65F VSB 3/4
ESCANABA       CLOUDY    43  41  93 S12       29.63S
MENOMINEE      CLOUDY    46  45  93 S10       29.63F
SAWYER-GWINN   SNOW      39  37  93 S13       29.58S VSB 1/4
$$
MIZ001>003-009>011-084-231400-
WESTERN UPPER MICHIGAN

CITY           SKY/WX    TMP DP  RH WIND       PRES   REMARKS
IRON MOUNTAIN  FOG       38  37  97 SE7       29.57F VSB 1/4
HOUGHTON       CLOUDY    37  35  92 SE8       29.49F FOG
COPPER HARBOR    N/A     40  37  89 SW9G18    29.51F
IRONWOOD       CLOUDY    45  45 100 S12       29.42F
$$

ABBREVIATIONS USED IN REMARKS
   TC - TEMPERATURE IN CELSIUS
  WCI - WIND CHILL INDEX
   HX - HEAT INDEX
  VSB - VISIBILITY



USA.gov is the U.S. government's official web portal to all federal, state and local government web resources and services.